Location: Monroe
(41.9160°N, 83.3980°W)
Time: 12:40:33
(UTC-05:00)

ISS - All Passes

Search period start: 03 December 2016 00:00
Search period end: 13 December 2016 00:00
Orbit: 401 x 410 km, 51.6° (Epoch: 03 December)

Date Brightness Start Highest point End Pass type
(mag) Time Alt. Az. Time Alt. Az. Time Alt. Az.
03 Dec - 01:03:04 10° WNW 01:06:08 35° SW 01:09:10 10° SSE night (unlit)
03 Dec - 17:42:55 10° SW 17:46:08 57° SE 17:49:24 10° ENE visible
03 Dec - 19:20:01 10° W 19:22:51 26° NNW 19:25:41 10° NE visible
03 Dec - 20:58:09 10° NW 21:00:10 15° N 21:02:14 10° NE night (unlit)
03 Dec - 22:34:47 10° NW 22:37:33 24° NNE 22:40:19 10° ENE night (unlit)
04 Dec - 00:11:01 10° WNW 00:14:19 67° SW 00:17:35 10° SE night (unlit)
04 Dec - 16:51:26 10° SSW 16:54:20 30° SE 16:57:16 10° ENE daylight
04 Dec - 18:27:41 10° W 18:30:47 37° NNW 18:33:53 10° NE visible
04 Dec - 20:05:50 10° NW 20:07:59 16° N 20:10:08 10° NE visible
04 Dec - 21:42:58 10° NW 21:45:25 19° NNE 21:47:52 10° ENE night (unlit)
04 Dec - 23:19:06 10° NW 23:22:24 66° NNE 23:25:42 10° ESE night (unlit)
05 Dec - 00:56:35 10° W 00:58:33 15° SW 01:00:30 10° SSW night (unlit)
05 Dec - 16:00:28 10° S 16:02:35 16° SE 16:04:44 10° E daylight
05 Dec - 17:35:31 10° WSW 17:38:47 61° NNW 17:42:03 10° NE visible
05 Dec - 19:13:24 10° WNW 19:15:48 18° NNW 19:18:12 10° NE visible
05 Dec - 20:51:03 10° NNW 20:53:14 16° N 20:55:25 10° NE night (unlit)
05 Dec - 22:27:16 10° NW 22:30:24 39° NNE 22:33:33 10° E night (unlit)
06 Dec - 00:03:57 10° WNW 00:06:49 27° SW 00:09:40 10° SSE night (unlit)
06 Dec - 16:43:34 10° SW 16:46:50 74° SE 16:50:08 10° ENE daylight
06 Dec - 18:20:55 10° WNW 18:23:38 23° NNW 18:26:21 10° NE visible
06 Dec - 19:58:58 10° NW 20:01:01 15° N 20:03:04 10° NE visible
06 Dec - 21:35:27 10° NW 21:38:20 27° NNE 21:41:13 10° E night (unlit)
06 Dec - 23:11:46 10° WNW 23:14:59 52° SW 23:18:13 10° SE night (unlit)
07 Dec - 15:51:54 10° SSW 15:54:58 38° SE 15:58:04 10° ENE daylight
07 Dec - 17:28:31 10° W 17:31:30 31° NNW 17:34:31 10° NE visible
07 Dec - 19:06:41 10° NW 19:08:46 15° N 19:10:52 10° NE visible
07 Dec - 20:43:36 10° NW 20:46:11 20° NNE 20:48:45 10° ENE night (unlit)
07 Dec - 22:19:45 10° NW 22:23:05 83° NE 22:26:22 10° ESE night (unlit)
07 Dec - 23:57:54 10° WSW 23:59:07 12° SW 00:00:20 10° SSW night (unlit)
08 Dec - 15:00:39 10° S 15:03:10 20° SE 15:05:41 10° E daylight
08 Dec - 16:36:14 10° WSW 16:39:26 49° NNW 16:42:40 10° NE daylight
08 Dec - 18:14:15 10° NW 18:16:32 17° N 18:18:49 10° NNE visible
08 Dec - 19:51:42 10° NNW 19:53:58 17° N 19:56:15 10° NE visible
08 Dec - 21:27:51 10° NW 21:31:05 47° NNE 21:34:17 10° ESE night (unlit)
08 Dec - 23:04:47 10° W 23:07:22 21° SW 23:09:58 10° S night (unlit)
09 Dec - 14:10:29 10° SE 14:11:25 11° SE 14:12:21 10° ESE daylight
09 Dec - 15:44:09 10° SW 15:47:26 87° NW 15:50:45 10° NE daylight
09 Dec - 17:21:44 10° WNW 17:24:19 21° NNW 17:26:54 10° NE daylight
09 Dec - 18:59:39 10° NW 19:01:44 15° N 19:03:48 10° NE visible
09 Dec - 20:35:59 10° NW 20:38:59 31° NNE 20:41:59 10° E night (unlit)
09 Dec - 22:12:26 10° WNW 22:15:33 40° SW 22:18:39 10° SSE night (unlit)
10 Dec - 14:52:20 10° SW 14:55:29 49° SE 14:58:41 10° ENE daylight
10 Dec - 16:29:15 10° W 16:32:08 27° NNW 16:35:02 10° NE daylight
10 Dec - 18:07:25 10° NW 18:09:27 15° N 18:11:29 10° NE visible
10 Dec - 19:44:08 10° NW 19:46:50 22° NNE 19:49:32 10° ENE visible
10 Dec - 21:20:19 10° WNW 21:23:38 78° SW 21:26:55 10° SE night (unlit)
11 Dec - 14:00:51 10° SSW 14:03:37 26° SE 14:06:25 10° ENE daylight
11 Dec - 15:36:53 10° W 15:40:00 40° NNW 15:43:09 10° NE daylight
11 Dec - 17:14:59 10° NW 17:17:10 16° N 17:19:21 10° NNE daylight
11 Dec - 18:52:13 10° NNW 18:54:36 18° NNE 18:56:59 10° ENE visible
11 Dec - 20:28:20 10° NW 20:31:38 58° NNE 20:34:53 10° ESE night (unlit)
11 Dec - 22:05:35 10° W 22:07:49 17° SW 22:10:03 10° S night (unlit)
12 Dec - 13:10:01 10° SSE 13:11:49 14° SE 13:13:37 10° E daylight
12 Dec - 14:44:40 10° WSW 14:47:56 69° NNW 14:51:13 10° NE daylight
12 Dec - 16:22:26 10° WNW 16:24:53 19° NNW 16:27:21 10° NE daylight
12 Dec - 18:00:12 10° NNW 18:02:19 16° N 18:04:27 10° NE visible
12 Dec - 19:36:26 10° NW 19:39:31 35° NNE 19:42:36 10° E visible
12 Dec - 21:13:00 10° WNW 21:15:59 31° SW 21:18:57 10° SSE night (unlit)
